Regional Weather Roundup
Issued by NWS Charleston, SC

Home | Current Version | Previous Version | Text Only | Print | Product List | Glossary On
Versions: 1 2 3 4 5 6 7 8 9 10 11 12 13 14 15 16 17 18 19 20 21 22 23 24 25 26 27 28 29 30 31 32 33 34 35 36 37 38 39 40 41 42 43 44 45 46 47 48 49 50
000
ASUS42 KCHS 271327
RWRCHS

REGIONAL WEATHER ROUNDUP
NATIONAL WEATHER SERVICE CHARLESTON SC
900 AM EDT MON APR 27 2015

NOTE: "FAIR" INDICATES FEW OR NO CLOUDS BELOW 12,000 FEET WITH NO
SIGNIFICANT WEATHER AND/OR OBSTRUCTIONS TO VISIBILITY.

NOT ALL STATIONS ARE QUALITY CONTROLLED BY THE NATIONAL
WEATHER SERVICE. USE DATA WITH CAUTION...ESPECIALLY
DEWPOINT OBSERVATIONS.

SCZ027-030-031-034>040-042>050-271400-
...SOUTHEAST SOUTH CAROLINA...

CITY           SKY/WX    TMP DP  RH WIND       PRES   REMARKS
N CHARLESTON   PTSUNNY   56  49  77 N7        29.84R
WATERFRONT PRK NOT AVBL
MOUNT PLEASANT PTSUNNY   55  50  82 MISG      29.84R
PINOPOLIS      NOT AVBL
MONCKS CORNER  CLOUDY    59  48  67 N7        29.85R
SUMMERVILLE    FAIR      59  52  77 N6        29.86R
BEAUFORT MCAS  PTSUNNY   59  51  75 N6        29.83S
BEAUFORT ARPT  PTSUNNY   57  52  82 N6        29.82R HAZE
HILTON HEAD IS CLOUDY    59  54  82 N9        29.84R
WALTERBORO     CLOUDY    55  50  82 N6        29.86R
ALLENDALE      FAIR      57  50  77 N5        29.86R

...SOUTHERN MIDLANDS AND PEE DEE...

CITY           SKY/WX    TMP DP  RH WIND       PRES   REMARKS
GEORGETOWN     NOT AVBL
KINGSTREE      NOT AVBL
ORANGEBURG     CLOUDY    56  48  74 N5        29.86R
BARNWELL       CLOUDY    57  50  77 N3        29.88R
AIKEN          CLOUDY    55  45  67 CALM      29.90R
MANNING        FAIR      55  37  50 CALM      29.86R
COLUMBIA       MOSUNNY   58  47  66 MISG      29.86R
SUMTER         MOSUNNY   56  46  70 N5        29.84R
FLORENCE       SUNNY     56  48  74 N6        29.84R
MYRTLE BEACH   MOSUNNY   55  46  71 N12       29.83R
N MYRTLE BEACH SUNNY     56  48  74 VRB7      29.81R

$$

GAZ063-065-086>088-099>101-113>116-118-119-134>141-150-271400-
...SOUTHEAST GEORGIA...

CITY           SKY/WX    TMP DP  RH WIND       PRES   REMARKS
SAVANNAH ARPT  CLOUDY    59  53  80 N8        29.84R
HUNTER AAF     CLOUDY    59  56  89 N7        29.82R
FORT STEWART   CLOUDY    59  55  88 N5        29.82R
STATESBORO       N/A     59  52  76 N5        29.86R
SYLVANIA       MOSUNNY   59  52  79 NE5       29.87R
CLAXTON        CLOUDY    59  54  82 N3        29.85R

...CSRA...CENTRAL AND FAR SOUTHEAST GEORGIA...

CITY           SKY/WX    TMP DP  RH WIND       PRES   REMARKS
THOMSON        CLOUDY    59  55  84 CALM      29.92R
AUGUSTA-BUSH   CLOUDY    57  49  74 N7        29.87R
AUGUSTA-DANIEL CLOUDY    57  49  74 NW6       29.87R
SWAINSBORO     NOT AVBL
VIDALIA        PTSUNNY   59  55  88 N6        29.85R
EASTMAN        FAIR      61  54  78 E7        29.88F
HAZLEHURST     CLOUDY    61  58  89 NW3       29.84S
ALMA           CLOUDY    63  59  87 N7        29.84R
WAYCROSS       CLOUDY    67  65  91 N7        29.83R
JESUP          CLOUDY    64  63  94 NE6       29.84R FOG
BAXLEY         CLOUDY    63  59  88 CALM      29.84S
BRUNSWICK      CLOUDY    68  63  83 NE6       29.83R
SAINT SIMONS   CLOUDY    68  62  81 NE8       29.82R

$$

SCZ027-028-034-036>038-045-046-048>050-GAZ119-141-271400-
...LAKE AND SUPPLEMENTAL COASTAL OBSERVATIONS...

STATION/POSITION TIME  TEMP    WIND        PRES    WAVE   SWELL
                       AIR SEA DIR/SP/G            HT/PER HT/PER/DIR
                 (UTC) (F)     (DEG/KT/KT) (MB)    (FT/S) (FT/S/D)
UPR LAKE MARION  NOT AVBL
WINYAH BAY       1200   52     320/  5     1008.0R
LAKE MURRAY      1200   54     330/  2/  4 1010.2R
ACE BASIN NERRS  NOT AVBL
FORT PULASKI     1300   58 70  360/  7/  9 1010.7R
SAPELO ISLAND    1300   66      40/  6     1009.0R

$$

ANZ835-935-AMZ111-154-330-350-352-354-370-450-454-472-271400-
...C-MAN AND BUOY OBSERVATIONS...

STATION/POSITION TIME  TEMP    WIND        PRES    WAVE   SWELL
                       AIR SEA DIR/SP/G            HT/PER HT/PER/DIR
                 (UTC) (F)     (DEG/KT/KT) (MB)    (FT/S) (FT/S/D)
BUOY 41004       1250   61 71  360/ 12/ 14 1008.3R   4/ 6   3/ 6
BUOY 41008       1250   64 70   40/ 12/ 14 1009.4R   4/ 6   3/ 50/ 6
FOLLY BEACH CMAN 1300   56     340/  4/  6 1009.9R
CAPERS NEARSHORE 1208   56      10/ 10/ 14 1009.3R
FRIPP NEARSHORE  1200   58      20/ 12/ 14 1009.7R


STATION/POSITION TIME  TEMP    WIND        PRES    WAVE   SWELL
                       AIR SEA DIR/SP/G            HT/PER HT/PER/DIR
                 (UTC) (F)     (DEG/KT/KT) (MB)    (FT/S) (FT/S/D)
5E ST. MARYS GA  1221      70                N/A     2/ 3
FRYING PAN BUOY  1250   60 70   10/ 10/ 14 1008.7R   3/ 9   3/110/ 9
BUOY 41025       1250   59 74  360/ 19/ 21 1006.9R   6/10   5/ 80/10
CAPE LOOKOUT NC  1300   56     340/ 10/ 12 1007.8R
BUOY 41002       1250   67 71  340/  8/ 12 1005.5R   5/ 8   5/320/ 8
BUOY 41010       1220   80 79  280/ 17/ 21 1007.3R
ST AUGUSTINE FL  1300   75 68  300/ 10/ 12 1009.3R


$$


USA.gov is the U.S. government's official web portal to all federal, state and local government web resources and services.